Terminal Aerodrome Forecast
Issued by NWS

Home | Current Version | Previous Version | Text Only | Print | Product List | Glossary On
Versions: 1 2 3 4 5 6 7 8 9 10 11 12 13 14 15 16 17 18 19 20 21 22 23 24 25
000
FTUS45 KVEF 230500
TAFLAS
TAF
KLAS 230535Z 2306/2406 32014G22KT P6SM SKC
     FM230800 34010G16KT P6SM SKC
     FM231900 04008KT P6SM SCT250
     FM240400 21007KT P6SM SCT250=

USA.gov is the U.S. government's official web portal to all federal, state and local government web resources and services.